Home   Weather   Warsaw   Past weeks

Flag for Poland Past Weather in Warsaw, Poland — Yesterday and Last 2 Weeks

39 °F


Feels Like: 32 °F
Forecast: 46 / 49 °F
Wind: 10 mph from Southeast

Location: Warsaw Okecie Airport

Current Time: Oct 23, 2016 at 8:16:09 AM

Latest Report: Oct 23, 2016 at 7:30 AM

Visibility: 2 mi

Pressure: 30.12 "Hg

Humidity: 100%

Dew Point: 39 °F

Location of WarsawLocation

Past Weather in Warsaw — Graph


Warsaw Temperature Yesterday

Maximum temperature yesterday: 45 °F (at 12:00 AM)
Minimum temperature yesterday: 43 °F (at 4:30 AM)
Average temperature yesterday: 44 °F

High & Low Weather Summary for the Past Weeks

High54 °F (Oct 14, 3:00 PM)100% (Oct 8, 6:30 PM)30.51 "Hg (Oct 8, 6:30 PM)
Low34 °F (Oct 14, 5:00 AM)44% (Oct 14, 2:00 PM)29.95 "Hg (Oct 8, 7:00 AM)
Average44 °F84%30.17 "Hg
* Reported Oct 8 7:00 AM — Oct 23 7:00 AM, Warsaw, Weather by CustomWeather, © 2016

Note: Actual official high and low records may vary slightly from our data, if they occured in-between our weather recording intervals... More about our weather records


Warsaw Weather History for the Previous 24 Hours

Scroll right to see more
Time TempWeatherWind HumidityBarometerVisibility
7:00 AM
Sun, Oct 23
39 °FFog.8 mph93%30.12 "Hg2 mi
6:30 AM37 °FFog.5 mph100%30.12 "Hg2 mi
6:00 AM39 °FFog.6 mph93%30.09 "Hg3 mi
5:30 AM36 °FFog.6 mph100%30.09 "Hg2 mi
5:00 AM39 °FFog.5 mph93%30.09 "Hg2 mi
4:30 AM37 °FClear.6 mph100%30.09 "Hg4 mi
4:00 AM39 °FFog.3 mph100%30.09 "Hg2 mi
3:30 AM41 °FFog.5 mph93%30.09 "Hg3 mi
3:00 AM41 °FFog.5 mph93%30.09 "Hg2 mi
2:30 AM41 °FFog.5 mph100%30.09 "Hg2 mi
2:00 AM41 °FFog.3 mph100%30.09 "Hg2 mi
1:30 AM41 °FFog.6 mph93%30.09 "Hg2 mi
1:00 AM41 °FFog.6 mph100%30.07 "Hg2 mi
12:30 AM43 °FFog.6 mph93%30.07 "Hg2 mi
12:00 AM45 °FFog.5 mph93%30.07 "Hg3 mi
11:30 PM
Sat, Oct 22
45 °FFog.5 mph93%30.07 "Hg2 mi
11:00 PM43 °FFog.3 mph100%30.04 "Hg1 mi
10:30 PM45 °FFog.3 mph93%30.04 "Hg3 mi
10:00 PM45 °FFog.3 mph100%30.04 "Hg3 mi
9:30 PM45 °FDrizzle. Fog.2 mph100%30.04 "Hg2 mi
9:00 PM45 °FDrizzle. Fog.3 mph93%30.04 "Hg2 mi
8:30 PM45 °FFog.3 mph93%30.04 "Hg2 mi
8:00 PM45 °FFog.3 mph93%30.01 "Hg3 mi
7:30 PM45 °FFog.2 mph93%30.01 "Hg3 mi
7:00 PM45 °FLow clouds.3 mph93%30.01 "Hg4 mi
6:30 PM45 °FLow clouds.2 mph93%30.01 "Hg5 mi
6:00 PM45 °FLow clouds.2 mph93%30.01 "Hg5 mi
5:30 PM45 °FPassing clouds.2 mph93%29.98 "Hg4 mi
5:00 PM45 °FPartly sunny.2 mph93%29.98 "Hg5 mi
4:30 PM43 °FPartly sunny.2 mph100%29.98 "Hg6 mi
4:00 PM43 °FPartly sunny.3 mph100%29.98 "Hg6 mi
3:30 PM43 °FPartly sunny.6 mph100%29.98 "HgN/A
3:00 PM43 °FPartly sunny.5 mph100%29.98 "HgN/A
2:30 PM43 °FPartly sunny.6 mph100%29.98 "HgN/A
2:00 PM43 °FLight rain. Partly sunny.7 mph93%29.98 "Hg5 mi
1:30 PM43 °FLight rain. Fog.7 mph100%29.98 "Hg3 mi
1:00 PM43 °FLight rain. Partly sunny.7 mph93%29.98 "HgN/A
12:30 PM43 °FLight rain. Partly sunny.8 mph93%29.98 "HgN/A
12:00 PM43 °FLight rain. Partly sunny.7 mph93%29.98 "HgN/A
11:30 AM43 °FLight rain. Partly sunny.8 mph93%29.98 "HgN/A
11:00 AM43 °FLight rain. Partly sunny.7 mph93%29.98 "HgN/A
10:30 AM43 °FLight rain. Partly sunny.8 mph93%29.98 "HgN/A
10:00 AM43 °FLight rain. Partly sunny.9 mph93%29.98 "HgN/A
9:30 AM43 °FLight rain. Partly sunny.9 mph93%29.98 "HgN/A
9:00 AM43 °FLight rain. Partly sunny.9 mph93%29.98 "Hg6 mi
8:30 AM43 °FRain. Partly sunny.9 mph93%29.98 "Hg5 mi
8:00 AM43 °FRain. Partly sunny.9 mph93%29.98 "Hg4 mi
Weather by CustomWeather, © 2016

See weather overviewHow to use our weather pages